Погода в Старом Село

Беларусь     55°13′36″N   29°53′06″E
темп.,
°C
ветер,
м/с
пор.,
м/с
влажн.,
%
обл.,
%
осадки,
мм/ч
давл.,
гПа
погр.,
м
11 апреля, вс
вс1100:00+7юз3785100 0.4 1021249
03:00+7ю2285100 1.0 102244
06:00+7ююв2285100 0.4 102322
09:00+8ююв237699 0.4 1024272
12:00+12ю4764100 0.0 1025602
15:00+16ююз574966 0.0 10251506
18:00+15ю3659100 0.0 1025219
21:00+10ююв41075100 0.0 1027199
12 апреля, пн
пн1200:00+8ююв497673 0.0 1028176
03:00+6ююв49795 0.0 1029155
06:00+5ююв38824 0.0 1029135
09:00+9ююв59664 0.0 1029333
12:00+13юв68480 0.0 10271096
15:00+15юв57400 0.0 10251532
18:00+14юв58446 0.0 1023807
21:00+9юв4967100 0.0 1023152
13 апреля, вт
вт1300:00+8ююв4989100 0.0 1023252
03:00+6ююв36966 0.0 1023129
06:00+6ююв22950 0.0 102233
09:00+10ююв34796 0.0 1022264
12:00+15ю456490 0.0 1021908
15:00+15ю346549 0.0 1021859
18:00+15ююв2372100 1.0 101963
21:00+12юз2386100 1.8 102071
14 апреля, ср
ср1400:00+11всв2396100 1.6 101973
03:00+11св3695100 2.1 1017232
06:00+10вюв1296100 0.4 101744
09:00+11св1193100 0.6 101766
12:00+9ссв4593100 0.6 1018223
15:00+8ссв4693100 0.6 1018235
18:00+9ссв568996 0.0 1017365
21:00+6ссв5994100 0.0 1018321
15 апреля, чт
чт1500:00+5ссв51194100 0.7 1018352
03:00+5ссв61194100 3.3 1017327
06:00+4ссв51195100 1.1 1016362
09:00+6св5995100 1.1 1017316
12:00+7св569097 0.1 1018315
15:00+9ссв6782100 0.1 1018499
18:00+6ссв61289100 0.0 1019390
21:00+5ссв71490100 0.1 1020482